Погода в Ибердусе

Россия / Рязанская область     54°54′21″N   41°02′48″E
темп.,
°C
ветер,
м/с
пор.,
м/с
влажн.,
%
обл.,
%
осадки,
мм/ч
давл.,
гПа
погр.,
м
16 июня, ср
ср1600:00+16ююз119428 0.1 100911
03:00+15с11945 0.1 100911
06:00+18ссз119136 0.0 100862
09:00+23ссз236715 0.0 1009657
12:00+26ссз454917 0.1 10091799
15:00+26ссз554673 0.1 10102117
18:00+23ссз58605 0.0 1012866
21:00+17с412625 0.0 1015479
17 июня, чт
чт1700:00+12ссз39725 0.0 1017180
03:00+11с26770 0.0 101999
06:00+14ссз26690 0.0 1020150
09:00+20с46415 0.0 1021863
12:00+23с46335 0.0 10221757
15:00+23с56335 0.0 10231854
18:00+21с4647100 0.0 10231114
21:00+15с23740 0.0 102547
18 июня, пт
пт1800:00+13с11795 0.0 102610
03:00+12ссв11830 0.0 102710
06:00+15с12730 0.0 102889
09:00+22ссз11495 0.0 1028687
12:00+25сз12405 0.0 10271885
15:00+26з2238100 0.0 10272210
18:00+24зюз24555 0.0 1026276
21:00+18зюз38855 0.0 1027161
19 июня, сб
сб1900:00+15з239398 0.0 102756
03:00+14з229515 0.0 102842
06:00+17з24805 0.0 1028152
09:00+23з34563 0.0 1028704
12:00+26зюз334434 0.0 10271529
15:00+27з334287 0.0 10261756
18:00+25з34567 0.0 1025769
21:00+19зюз22865 0.0 102629
20 июня, вс
вс2000:00+17зюз22925 0.0 102619
03:00+15зюз22965 0.0 102721
06:00+18з12855 0.0 1027128
09:00+24юз226029 0.0 1026789
12:00+27ююз23475 0.0 10251541
15:00+28ююз33450 0.0 10241742
18:00+26ююз33590 0.0 1023751
21:00+20юз228598 0.0 102425